STARLINK-35071

Last updated on Tue Sep 16 2025 00:02:08 GMT+0000 (Coordinated Universal Time)

1 65477U 25195V 25257.83368835 -.00429377 00000+0 -26576-2 0 9997 2 65477 53.1555 1.1213 0000473 272.8958 87.2009 15.77529019 2967
UTC large
Height (km)
Speed (km/s)
/
Latitude / Longitude
Inclination (degrees)
Orbital Period (minutes)
Azimuth
Elevation
Range (km)
Doppler Factor

Next 0 passes for location: London (51.5072 / 0.1276)

Sorry there are no passes over London.